Regional Weather Roundup
Issued by NWS Upton, NY

Current Version | Previous Version | Text Only | Print | Product List | Glossary On
Versions: 1 2 3 4 5 6 7 8 9 10 11 12 13 14 15 16 17 18 19 20 21 22 23 24 25 26 27 28 29 30 31 32 33 34 35 36 37 38 39 40 41 42 43 44 45 46 47 48 49 50
000
ASUS41 KOKX 072108
RWROKX

REGIONAL WEATHER ROUNDUP
NATIONAL WEATHER SERVICE NEW YORK NY
400 PM EST WED DEC 07 2016

NOTE: "FAIR" INDICATES FEW OR NO CLOUDS BELOW 12,000 FEET WITH NO
SIGNIFICANT WEATHER AND/OR OBSTRUCTIONS TO VISIBILITY.

NYZ071-072-176-178-NJZ106-104-072200-
NEW YORK CITY METRO AREA

CITY           SKY/WX    TMP DP  RH WIND       PRES   REMARKS
Central Park   CLOUDY    45  38  76 CALM      30.01R
Wall St Helipt MOCLDY    46  40  79 W6        30.00S
Bronx Bot Gard   N/A     45  37  76 CALM      30.00S
LaGuardia APRT CLOUDY    47  39  74 NW8       29.98S
Kennedy INTL   CLOUDY    46  39  76 W8        30.00S
Breezy Point   NOT AVBL
Newark/Liberty MOCLDY    46  37  71 W5        29.99R
Teterboro      CLOUDY    47  37  68 N7        29.98S
$$

NYZ177-179-078>081-072200-
LONG ISLAND NEW YORK

CITY           SKY/WX    TMP DP  RH WIND       PRES   REMARKS
Jones Beach    NOT AVBL
Matinecock PT  NOT AVBL
Farmingdale    CLOUDY    45  39  79 NW6       29.99R
MacArthur/ISP  CLOUDY    44  39  82 W6        29.98R
Shirley        CLOUDY    44  41  89 N6        29.99R
Westhampton    CLOUDY    44  40  85 N6        30.00R
Southampton      N/A     45  41  87 NW3       29.96R
Bridgehampton  NOT AVBL
East Hampton   CLOUDY    43  39  87 CALM      29.98R
Montauk          N/A     45  40  82 W3        29.99R
$$

NYZ052-065-067-072200-
HUDSON VALLEY

CITY           SKY/WX    TMP DP  RH WIND       PRES   REMARKS
White Plains   MOCLDY    42  37  82 NW5       29.97S
Newburgh       PTCLDY    41  37  87 W7        29.98S
Montgomery     PTCLDY    42  37  82 CALM      29.97S
Poughkeepsie   CLOUDY    42  37  82 CALM      29.97F
Albany         MOCLDY    38  35  89 CALM      29.98R
$$

NJZ001-105-106-008-010-013-015-019>022-104-072200-
NEW JERSEY

CITY           SKY/WX    TMP DP  RH WIND       PRES   REMARKS
Newark/Liberty MOCLDY    46  37  71 W5        29.99R
Teterboro      CLOUDY    47  37  68 N7        29.98S
Caldwell       CLOUDY    46  35  65 VRB6      30.00R
Somerville     CLOUDY    46  35  65 CALM      29.98R
Linden         CLOUDY    46  37  71 W5        30.00R
Sussex         PTCLDY    42  36  79 CALM      29.99R
Andover          N/A     40  37  89 CALM      29.99R
Trenton        PTCLDY    46  36  68 W5        30.01R
Millville      CLOUDY    46  40  79 NW6       30.03R
Atlantic City  CLOUDY    46  38  73 NW8       30.03R
Wrightstown    CLOUDY    45  38  75 NW6       29.98S
Toms River     CLOUDY    45  41  86 CALM      30.01R
Belmar         PTCLDY    46  39  76 W5        30.01S
$$

PAZ047>061-062-071-072200-
EASTERN PENNSYLVANIA

CITY           SKY/WX    TMP DP  RH WIND       PRES   REMARKS
Philadelphia   PTCLDY    47  35  63 W9        30.03R
Allentown      CLEAR     44  33  65 CALM      30.01R
Scranton       CLOUDY    42  34  73 SW8       29.97R
$$

CTZ002-004>006-009-010-012-RIZ004-006-007-MAZ004-011-015-072200-
SOUTHERN NEW ENGLAND
 IN CT

CITY           SKY/WX    TMP DP  RH WIND       PRES   REMARKS
Bradley INTL   CLOUDY    41  36  82 SW5       29.98R
Hartford       CLOUDY    42  37  82 SW5       29.98R
Danbury        CLOUDY    41  35  79 N5        29.98R
Wtrbury/Oxford CLOUDY    39  34  81 CALM      29.98R
Bridgeport     CLOUDY    45  39  81 W5        29.98S
Meriden        CLOUDY    44  37  76 W3        29.98S
New Haven      CLOUDY    43  38  82 SW5       29.98R
Chester        CLOUDY    43  39  87 CALM      29.97R
Groton         CLOUDY    47  41  80 W6        29.97R
Wilimantic     CLOUDY    45  38  76 W7        29.98R

 IN RI

CITY           SKY/WX    TMP DP  RH WIND       PRES   REMARKS
Providence     CLOUDY    42  37  82 S3        29.98R
Block Island   CLOUDY    43  39  86 CALM      29.98R
Westerly       CLOUDY    45  38  76 SW3       29.98R
 IN MA

CITY           SKY/WX    TMP DP  RH WIND       PRES   REMARKS
Boston         CLOUDY    41  37  86 CALM      29.98R
Worcester      CLOUDY    38  35  89 W8        29.94R WCI  32
Westfield      CLOUDY    40  38  93 CALM      29.97R
Provincetown   CLOUDY    43  39  86 CALM      29.97R
Nantucket      MOCLDY    44  39  82 N5        29.95R
$$

ANZ330-335-338-340-345-350-353-355-072200-
COASTAL MARINE OBSERVATIONS


STATION/POSITION TIME  SKY/WX   TEMP    WIND        PRES    VSBY  WAVE
                                AIR SEA DIR/SP/G                  HT/PER
                 (UTC)          (F)     (DEG/KT/KT) (MB)    (MI)  (FT/S)
NY HARB ENTRANCE 1950            45 53  290/ 10/ 12 1015.3          6/ 8
20 S FIRE ISLAND 1950            45 54  320/  8/ 10 1014.8          7/ 8
GREAT SOUTH BAY  2015            44 43                N/A
23 SSW MONTAUK P 2050            47 54  350/  4/  6 1015.4          5/ 7
15 E BARNEGAT LI 2030               54                N/A           7/10
HUDSON CANYON    1950            51 56              1014.0          9/ 8
KINGS POINT      2042            45 48              1015.3
EXECUTION ROCKS  2045            45     290/  6/  8   N/A
CENTRAL LI SOUND NOT AVBL
EASTERN LI SOUND NOT AVBL
ROBBINS REEF     2042            45     280/  3/  3 1015.6
$$


>>>>>>>>>>>>>>>>>>>>>>>>>>>> KEY <<<<<<<<<<<<<<<<<<<<<<<<<<<
>                                                          <
>     SKY/WX - Sky Condition/Present Weather               <
>     TMP    - Temperature in Fahrenheit                   <
>     DP     - Dew Point in Fahrenheit                     <
>     RH     - Relative Humidity in Percent                <
>     WIND   - Direction (from) and Speed in MPH           <
>     PRES   - Mean Sea Level Pressure (inches of Hg)      <
>     WCI    - Wind Chill Index                            <
>     VSB    - VISIBILITY IN MILES                         <
>     HX     - HEAT INDEX                                  <
>     TC     - TEMPERATURE IN CELSIUS                      <
>     VRB    - VARIABLE WIND DIRECTION                     <
>                                                          <
>>>>>>>>>>>>>>>>>>>>>>>>>>>> KEY <<<<<<<<<<<<<<<<<<<<<<<<<<<



USA.gov is the U.S. government's official web portal to all federal, state and local government web resources and services.